Regional Weather Roundup
Issued by NWS Grand Forks, ND

Home | Current Version | Previous Version | Text Only | Print | Product List | Glossary On
Versions: 1 2 3 4 5 6 7 8 9 10 11 12 13 14 15 16 17 18 19 20 21 22 23 24 25 26 27 28 29 30 31 32 33 34 35 36 37 38 39 40 41 42 43 44 45 46 47 48 49 50
000
ASUS43 KFGF 202031
RWRFGF
PRAIRIE TO PINES  WEATHER ROUNDUP
NATIONAL WEATHER SERVICE EASTERN NORTH DAKOTA/GRAND FORKS ND
300 PM CDT WED AUG 20 2014

 **SATELLITE DATA USED TO AUGMENT SKY COVER AT AUTOMATED STATIONS**
 *****  WEATHER ACROSS EASTERN NORTH DAKOTA  *****

CITY           SKY/WX    TMP DP  RH WIND       PRES   REMARKS
GRAND FORKS    PTSUNNY   82  68  62 SE12      29.78R
GRAND FRKS AFB PTSUNNY   83  68  60 SE13      29.79R
GRAND FRKS NWS   N/A     73 N/A N/A S10         N/A
DEVILS LAKE    PTSUNNY   82  64  54 S16G22    29.76S
FARGO          CLOUDY    84  67  56 S13G23    29.79R
WAHPETON ARPT  MOCLDY    79  63  57 SE15      29.80S
$$

 ***** WEATHER ACROSS CENTRAL AND WESTERN NORTH DAKOTA  *****

CITY           SKY/WX    TMP DP  RH WIND       PRES   REMARKS
BISMARCK       CLOUDY    82  68  62 SW8       29.72S
MINOT          PTSUNNY   84  60  44 SE13      29.71S
JAMESTOWN      CLOUDY    82  66  58 S13       29.77R
MINOT AFB      PTSUNNY   83  68  60 E12G23    29.70F
GARRISON         N/A     71  66  84 SE5       29.74R
WILLISTON      RAIN      73  66  78 SW6       29.74R
DICKINSON      RAIN      71  67  87 N8        29.72R FOG
HETTINGER      CLOUDY    81  65  58 SE10      29.72S
$$

 *****  OTHER AIRPORT OBSERVATIONS IN OUR AREA  *****

CITY           SKY/WX    TMP DP  RH WIND       PRES   REMARKS
WALHALLA       FAIR      82  68  61 S14       29.77S
GRAFTON AIRPOR FAIR      82  66  57 S10       29.78R
VALLEY CITY AR FAIR      82  66  57 SE13G21   29.78S
CANDO          FAIR      81  66  61 S12       29.78S
CAVALIER APRT  FAIR      82  66  57 S15       29.77F HAZE
GWINNER        CLEAR     82  68  61 SE14      29.79S
ROLLA          FAIR      66  66 100 NW6       29.82R
 ***** THE ABOVE OBSERVATIONS ARE NON NWS ARE NOT QUALITY
       CONTROLLED AND MAY MIS-REPORT RAIN FOR SNOW...
$$

  *****  WEATHER ACROSS NORTHERN MINNESOTA  *****

CITY           SKY/WX    TMP DP  RH WIND       PRES   REMARKS
FLAG ISLAND    SUNNY     73  63  68 S7        29.85S
WARROAD        PTSUNNY   77  66  69 E8        29.84S
ROSEAU         SUNNY     81  64  57 SE10      29.84R
HALLOCK        MOSUNNY   82  66  57 S14       29.78S
THF RVR FALLS  MOSUNNY   81  63  54 SE8       29.82R
BAUDETTE       CLOUDY    76  60  57 SE7       29.87R
WASKISH        CLOUDY    75  64  69 CALM      29.87S
CROOKSTON      PTSUNNY   82  64  54 S10G16    29.81S
$$
  *****  WEATHER ACROSS CENTRAL AND WEST MINNESOTA  *****

CITY           SKY/WX    TMP DP  RH WIND       PRES   REMARKS
FOSSTON        PTSUNNY   81  64  57 S6        29.84S
BEMIDJI        MOSUNNY   76  62  60 E10       29.86S
PARK RAPIDS    PTSUNNY   78  62  57 SE9       29.86R
ELBOW LAKE     FAIR      80  66  62 SE12G20   29.82F
WADENA         PTSUNNY   79  66  65 SE10      29.85F
DETROIT LAKES  CLOUDY    81  64  57 SE10      29.85S
MOORHEAD       CLOUDY    82  70  65 S10G18    29.80S
FERGUS FALLS   CLOUDY    81  63  54 SE10      29.81S
MORRIS MN      PTSUNNY   84  66  54 SE13      29.80F
STAPLES        PTSUNNY   75  63  64 SE7       29.87R
$$
  *****  WEATHER ELSEWHERE ACROSS MINNESOTA  *****

CITY           SKY/WX    TMP DP  RH WIND       PRES   REMARKS
DULUTH         CLOUDY    70  57  63 SE8       29.92R
INTRNTL FALLS  MOSUNNY   74  58  57 E8G17     29.88R
ELY            CLOUDY    70  59  68 NE5       29.91R
CLOQUET        CLOUDY    70  57  64 SE3       29.91S
WHEATON        PTSUNNY   79  68  69 SE16      29.80F
BRAINERD       PTSUNNY   75  63  66 VRB6      29.88S
HIBBING        CLOUDY    75  58  55 VRB7      29.89S
ALEXANDRIA     CLOUDY    80  67  64 SE14      29.87R
SAINT CLOUD    PTSUNNY   81  63  54 S8        29.86S
MINNEAPOLIS    PTSUNNY   81  64  56 SE6       29.85F
$$

  *****  WEATHER ACROSS SOUTH DAKOTA  *****

CITY           SKY/WX    TMP DP  RH WIND       PRES   REMARKS
SIOUX FALLS    MOSUNNY   83  68  60 S18G24    29.79R
BROOKINGS      NOT AVBL
WATERTOWN      MOSUNNY   81  65  58 SE9       29.78F
HURON          CLOUDY    81  66  60 SE12      29.72F
SISSETON         N/A     83  67  58 S16G22    29.77S
ABERDEEN       PTSUNNY   83  67  58 S12       29.74S
MITCHELL       PTSUNNY   83  69  62 SE13      29.73F
PIERRE         CLOUDY    83  70  64 SE9       29.68S
MOBRIDGE       CLOUDY    80  68  66 SE14      29.68F
RAPID CITY     MOSUNNY   86  59  39 SE10      29.73F
$$

  *****  SOME WEATHER IN NEARBY STATES *****

CITY           SKY/WX    TMP DP  RH WIND       PRES   REMARKS
GLASGOW MT     PTSUNNY   72  58  61 W10       29.77R
GREAT FALLS MT TSTM      70  48  46 NW18G26   29.84R
CHEYENNE WY    MOSUNNY   81  45  28 W15G30    30.00S
SCOTTSBLUFF NE SUNNY     91  52  26 W17G26    29.83S
OMAHA NE       PTSUNNY   89  72  56 S18       29.80F HX  96
DES MOINES IA  CLOUDY    81  69  67 S10       29.86F
DAVENPORT IA   CLOUDY    77  68  73 S10       29.91R
CHICAGO IL     PTSUNNY   84  63  49 SW14      29.88F
EAU CLAIRE WI  MOSUNNY   75  61  61 CALM      29.88S
LA CROSSE WI   PTSUNNY   85  66  53 NE3       29.85S
$$

  *****  SOME NATIONAL WEATHER *****

CITY           SKY/WX    TMP DP  RH WIND       PRES   REMARKS
LA GUARDIA NY  MOSUNNY   81  55  40 SE13      29.97S
RALEIGH NC     PTSUNNY   86  71  60 CALM      29.97R HX  91
ATLANTA GA     CLOUDY    73  66  78 S8        30.05F
NEW ORLEANS LA CLOUDY    83  74  74 NW10      30.05F THUNDER
OKLAHOMA CITY  SUNNY     94  65  38 S18G24    29.90F HX  96
ALBUQUERQUE NM MOSUNNY   84  44  24 NW10G16   30.07F
SALT LAKE CITY PTSUNNY   77  49  37 S16       29.98F
LOS ANGELES CA MOSUNNY   77  58  51 W17       29.93F
BOISE ID       PTSUNNY   79  48  33 NW5       29.87F
SEATTLE WA     CLOUDY    66  50  56 SW10      30.00R
$$

*** WEATHER ACROSS MANITOBA...SASKATCHEWAN AND ONTARIO ***
                ***ONTARIO***

CITY           SKY/WX    TMP DP  RH WIND       PRES   REMARKS
GERALDTON      CLOUDY    66  61  82 E5        29.93
THUNDER BAY    PTSUNNY   70  63  78 E8        29.90S
SIOUX LOOKOUT  MOSUNNY   75  59  57 S6        29.89
TORONTO        PTSUNNY   75  64  69 SE12      29.89S
BIG TROUT LK   SUNNY     79  50  36 SE10      29.90  HAZE
PICKLE LAKE    MOSUNNY   79  52  38 VRB2      29.91S
DRYDEN         PTSUNNY   75  59  57 SE6       29.90R
KENORA         PTSUNNY   75  59  57 S8        29.88S
$$
                *** MANITOBA***

CITY           SKY/WX    TMP DP  RH WIND       PRES   REMARKS
BRANDON        LGT RAIN  66  63  88 NE5       29.73F
DAUPHIN        PTSUNNY   79  66  65 S8        29.69R
ISLAND LAKE    MOSUNNY   84  57  39 SE7       29.80R
PILOT MOUND      N/A     66  63  88 N3          N/A
THE PAS        MOSUNNY   79  66  65 SE12      29.62  SMOKE
THOMPSON       MOSUNNY   81  64  57 SE14      29.70S
WINNIPEG       PTSUNNY   82  66  57 SE13      29.78R
LYNN LAKE      LGT RAIN  57  57 100 MISG      29.71S
CHURCHILL      CLOUDY    54  52  94 N9        29.83R FOG
GILLAM         PTSUNNY   84  61  45 S12       29.75S
$$
                ***SASKATCHEWAN***

CITY           SKY/WX    TMP DP  RH WIND       PRES   REMARKS
ESTEVAN        CLOUDY    73  64  73 S12       29.73R
KINDERSLEY     PTSUNNY   72  52  49 NW10G17   29.80R
LLOYDMINSTER   PTSUNNY   70  52  52 NW15G23   29.81R
PRINCE ALBERT  LGT RAIN  66  63  88 N7        29.70R
REGINA         LGT RAIN  68  66  94 S6        29.73R
YORKTON        SUNNY     79  63  57 SW14      29.66
N. BATTLEFORD  MOSUNNY   72  59  64 NW12G20   29.77R
LA RONGE       LGT RAIN  64  61  88 E6        29.70F
SASKATOON      PTSUNNY   72  61  68 NW12      29.72R
SWIFT CURRENT  MOSUNNY   73  50  43 NW13G22   29.76S
$$
NOTE: THESE ARE AUTOMATED STATIONS WITH LIMITED QUALITY CONTROL
      "FAIR" INDICATES FEW OR NO CLOUDS BELOW 12,000 FEET WITH NO
      SIGNIFICANT WEATHER AND/OR OBSTRUCTIONS TO VISIBILITY.
      SKY/WX - SKY CONDITION AND SIGNIFICANT WEATHER.
      TMP - AIR TEMPERATURE.    DP   - DEWPOINT TEMPERATURE.
      RH  - RELATIVE HUMIDITY.  PRES - PRESSURE.
      HX  - HEAT INDEX.         WCI  - WIND CHILL INDEX.
$


USA.gov is the U.S. government's official web portal to all federal, state and local government web resources and services.